TimeEST,TemperatureF,Dew PointF,Humidity,Sea Level PressureIn,VisibilityMPH,Wind Direction,Wind SpeedMPH,Gust SpeedMPH,PrecipitationIn,Events,Conditions,WindDirDegrees,DateUTC
12:53 AM,70.0,70.0,100,30.15,10.0,WNW,3.5,-,N/A,,Scattered Clouds,300,2013-12-24 05:53:00
1:53 AM,69.1,69.1,100,30.14,10.0,Calm,Calm,-,N/A,,Clear,0,2013-12-24 06:53:00
2:53 AM,68.0,68.0,100,30.14,10.0,Calm,Calm,-,N/A,,Clear,0,2013-12-24 07:53:00
3:11 AM,69.8,69.8,100,30.12,2.5,Calm,Calm,-,N/A,,Scattered Clouds,0,2013-12-24 08:11:00
3:24 AM,69.8,69.8,100,30.12,5.0,Calm,Calm,-,N/A,,Partly Cloudy,0,2013-12-24 08:24:00
3:53 AM,68.0,68.0,100,30.13,10.0,Calm,Calm,-,N/A,,Clear,0,2013-12-24 08:53:00
4:34 AM,69.8,69.8,100,30.12,10.0,Calm,Calm,-,N/A,,Partly Cloudy,0,2013-12-24 09:34:00
4:53 AM,68.0,68.0,100,30.13,10.0,Calm,Calm,-,N/A,,Partly Cloudy,0,2013-12-24 09:53:00
5:22 AM,68.0,68.0,100,30.13,1.8,Calm,Calm,-,N/A,,Scattered Clouds,0,2013-12-24 10:22:00
5:31 AM,68.0,68.0,100,30.13,3.0,Calm,Calm,-,N/A,,Scattered Clouds,0,2013-12-24 10:31:00
5:53 AM,68.0,68.0,100,30.14,9.0,Calm,Calm,-,N/A,,Clear,0,2013-12-24 10:53:00
6:04 AM,66.2,66.2,100,30.14,4.0,Calm,Calm,-,N/A,,Scattered Clouds,0,2013-12-24 11:04:00
6:15 AM,66.2,66.2,100,30.14,2.5,Calm,Calm,-,N/A,,Mostly Cloudy,0,2013-12-24 11:15:00
6:18 AM,68.0,68.0,100,30.14,10.0,Calm,Calm,-,N/A,,Partly Cloudy,0,2013-12-24 11:18:00
6:53 AM,68.0,68.0,100,30.16,10.0,Calm,Calm,-,N/A,,Partly Cloudy,0,2013-12-24 11:53:00
7:24 AM,68.0,68.0,100,30.16,1.5,Calm,Calm,-,N/A,,Scattered Clouds,0,2013-12-24 12:24:00
7:32 AM,68.0,68.0,100,30.16,10.0,Calm,Calm,-,N/A,,Scattered Clouds,0,2013-12-24 12:32:00
7:53 AM,69.1,69.1,100,30.17,10.0,Calm,Calm,-,N/A,,Scattered Clouds,0,2013-12-24 12:53:00
8:53 AM,73.0,73.0,100,30.18,10.0,West,3.5,-,N/A,,Scattered Clouds,270,2013-12-24 13:53:00
9:53 AM,78.1,72.0,81,30.19,10.0,WSW,6.9,-,N/A,,Scattered Clouds,250,2013-12-24 14:53:00
10:53 AM,79.0,69.1,72,30.18,10.0,Variable,3.5,-,N/A,,Partly Cloudy,0,2013-12-24 15:53:00
11:53 AM,82.9,68.0,60,30.15,10.0,Variable,5.8,-,N/A,,Scattered Clouds,0,2013-12-24 16:53:00
12:53 PM,84.0,66.9,56,30.11,10.0,WNW,9.2,-,N/A,,Scattered Clouds,290,2013-12-24 17:53:00
1:53 PM,77.0,72.0,84,30.10,10.0,NNW,6.9,-,N/A,,Mostly Cloudy,330,2013-12-24 18:53:00
2:53 PM,79.0,71.1,77,30.09,10.0,NNW,4.6,-,N/A,,Mostly Cloudy,330,2013-12-24 19:53:00
3:53 PM,75.0,69.1,82,30.10,10.0,North,8.1,-,N/A,,Mostly Cloudy,350,2013-12-24 20:53:00
4:00 PM,75.2,69.8,83,30.09,10.0,North,10.4,17.3,N/A,,Overcast,360,2013-12-24 21:00:00
4:53 PM,73.0,66.9,81,30.12,10.0,North,12.7,19.6,N/A,,Mostly Cloudy,350,2013-12-24 21:53:00
5:53 PM,69.1,64.0,84,30.14,10.0,North,9.2,18.4,N/A,,Overcast,360,2013-12-24 22:53:00
6:53 PM,68.0,62.1,81,30.15,10.0,North,10.4,16.1,N/A,,Overcast,360,2013-12-24 23:53:00
7:53 PM,69.1,61.0,75,30.16,10.0,North,8.1,-,N/A,,Overcast,350,2013-12-25 00:53:00
8:53 PM,70.0,62.1,76,30.16,10.0,NNW,8.1,-,N/A,,Overcast,340,2013-12-25 01:53:00
9:53 PM,70.0,62.1,76,30.16,10.0,NNW,6.9,-,N/A,,Overcast,330,2013-12-25 02:53:00
10:53 PM,69.1,62.1,78,30.15,10.0,NNW,3.5,-,N/A,,Scattered Clouds,330,2013-12-25 03:53:00
11:00 PM,69.8,62.6,78,30.15,10.0,NNW,5.8,-,N/A,,Overcast,330,2013-12-25 04:00:00
11:53 PM,70.0,64.0,81,30.14,10.0,Calm,Calm,-,0.00,Rain,Light Rain,0,2013-12-25 04:53:00